"Pseudo-MPEC" for JA0004

Created 2019 Apr 26 2:07:07 UT using Find_Orb

Click here for an explanation of pseudo-MPECs

 
 Astrometry: 
     JA0004   C2019 04 02iy_/\V%T5Y@1pA=2G!lE*ZdF=236N6Y(uidRHsg'mRw5o/\KU[/6F51
     JA0004   C2019 04 02FV-X\uH01[l`$1lL*4SwfPf69Iao*p_*LlbAdMRF?mJP_QZM*2n5F51
     JA0004   C2019 04 02x*N!kC,;(jBO-*pKW#qQJv'cM7Astrometry1(+Fiu(4rhOU2K^?F51
     JA0004   C2019 04 02V.kg1[lysp6+xuQ$d`xS('.;SF4cTY*fvI!B#sj!qeRO)3j[@Lc(F51
     JA0004  KC2019 04 05ApNV3(5=He@J.C$$pI%Ah1qrx;-gJF/@teS#TKKtkO(i.`_1e'yvW93
     JA0004  KC2019 04 05RKumYm4):C$4b1kq\qk(Mq.30?RksNwD#j#K%aeeS?PE63p'op.@W93
     JA0004   C2019 04 05YAPxsvq!spYM*C4IyS^!Tqq5@hC`G6ykfKG`A$Hd!7gji?(EMyc?W93
     JA0004   C2019 04 07^`Y+%p_p\0=v+wS;!j(Vredacted;5LO=qq3?jrJW_clicktU0M-W93
     JA0004   C2019 04 071$-?@c/?hereDNnyJ3gj#9J'p/!g2Gk?3JRji;Fb:u0VN[i;%FTOW93
     JA0004   C2019 04 07N%8OlV;mZL;2p*NGhkWD@8g[=g6F;o^E;o`.Ku5w6!GtOcu=USaOW93
     JA0004   C2019 04 07E(0=pceo00KKsvbMjctd97`VFmru8T`UJ`sj0OTfortT%m*YUWI?F51
     JA0004   C2019 04 07+42BNBiu:3I$Cs?p=OEr#ywq)W:yEn1AvTdqH)_qa(Exb/wZ3P2^F51
     JA0004   C2019 04 09YCdM#LL)G72N`o31Vo07GMDa3tsK-p64t.`7-OsPih=y2ejY8jWSF51
     JA0004   C2019 04 09XQ')8w?LK'fK?t(nmX]6v7ibVYBH#y[+)ew^$,fj1+9SfLjVH[EdF51
     JA0004   C2019 04 098X,`[`bqEE\BL@2,kCkc]DO/h+1J*u\VRv?IA+=DKV2c#L]VFD;1F51
     JA0004  KC2019 04 11n,dBAn:=_XW#NuY:8YqpsNpD'fDhQ:0rcO2hD)EG1t[%fnv_ep35W93
     JA0004  KC2019 04 11hW=TU+_po1YxC9gBvfi-;J2[s/@8YTM!1DUA)o7ypw$cF`+iGn4[W93
     JA0004  KC2019 04 13gw%V0RWuQfZ[SY#1@gO@M4/t4#.explanationJD+I;6VL1-m(gNW93
     JA0004  KC2019 04 13[!D92dZa*-Pn[qDh)H?E^OKJ\,$GAYkZk0:,:!\.]!Z[CPdlIc*yW93
     JA0004  ^C2019 04 24i.5-:mT\LFpqV1$Jf:3#oG^mQ#_@CS/Ri=F\K(cqSZ'd8,*Ss.@l695
     JA0004  ^C2019 04 24oqI.KjR%y^Hp**BgGm@(u^@[hMTvPNCEyl.J6`)6xQ,(6NI]BC?q695

Station data:
(695) Kitt Peak  (N31.958398 W111.594670)  US/Arizona.
(F51) Pan-STARRS 1, Haleakala  (N20.707235 W156.255910)  US/Hawaii.
   Observers N. Primak, A. Schultz, S. Watters, J. Thiel, T. Goggia. Measurer
   PS1 Science Consortium. 1.8-m Ritchey-Chrétien + CCD.
(W93) Korea Microlensing Telescope Network-CTIO  (S30.167216 W70.804000)
   Chile.  Observer Y. JeongAhn. 1.6-m f/3.22 reflector + CCD.

Orbital elements:  JA0004
   Perihelion 2026 Dec 16.242178 +/- 351 TT =  5:48:44 (JD 2461390.742178)
Epoch 2019 Apr 24.0 TT = JDT 2458597.5   Ur: 0.8288           AutoNEOCP
M 341.61729254 +/- 6                (J2000 ecliptic)
n   0.00658113 +/- 0.00391          Peri.  239.88262 +/- 6
a  28.2012782 +/- 11.5              Node    28.29774 +/- 1.0
e   0.5821430 +/- 0.168             Incl.    7.96673 +/- 0.6
P 149.76                   H 11.5   G  0.15   U  9.1  
q 11.7841006 +/- 0.406    Q 44.6184557 +/- 149
From 21 observations 2019 Apr. 2-24; mean residual 0".31
Residuals in arcseconds: 
190402 F51  .19-  .06-    190407 W93  .07+  .91+    190409 F51  .35+  .06-    
190402 F51  .17-  .09+    190407 W93  .38+  .05+    190411 W93  .08-  .21+    
190402 F51  .06-  .07+    190407 W93  .40+  .30+    190411 W93  .15+  .16-    
190402 F51  .45+  .49+    190407 F51  .24-  .34-    190413 W93  .44-  .12+    
190405 W93  .47-  .73-    190407 F51  .18-  .09-    190413 W93  .06+  .27-    
190405 W93  .01-  .00     190409 F51  .42-  .14+    190424 695  .03-  .23-    
190405 W93  .21+  .33-    190409 F51  .26+  .32-    190424 695  .11+  .33+    

Ephemerides (geocentric):
Date (UTC) HH   RA              Dec         delta   r     elong  mag " sig PA
---- -- -- --  -------------   -----------  ------ ------ -----  --- ---- ---
2019 04 26 02  13 05 00.497   -05 17 34.15  14.604 15.562 161.6 23.5 .273 151
2019 04 26 03  13 05 00.062   -05 17 31.96  14.604 15.562 161.6 23.5 .279 151
2019 04 26 04  13 04 59.627   -05 17 29.77  14.604 15.562 161.6 23.5 .285 150
2019 04 26 05  13 04 59.192   -05 17 27.58  14.604 15.561 161.5 23.5 .291 150
2019 04 26 06  13 04 58.757   -05 17 25.39  14.604 15.561 161.5 23.5 .297 149
2019 04 26 07  13 04 58.322   -05 17 23.21  14.604 15.561 161.4 23.5 .303 149
2019 04 26 08  13 04 57.888   -05 17 21.02  14.604 15.561 161.4 23.5 .309 148
2019 04 26 09  13 04 57.454   -05 17 18.84  14.604 15.561 161.3 23.5 .316 148
2019 04 26 10  13 04 57.019   -05 17 16.66  14.605 15.561 161.3 23.5 .322 148
2019 04 26 11  13 04 56.585   -05 17 14.48  14.605 15.561 161.3 23.5 .328 147
2019 04 26 12  13 04 56.151   -05 17 12.29  14.605 15.561 161.2 23.5 .335 147
2019 04 26 13  13 04 55.718   -05 17 10.11  14.605 15.561 161.2 23.5 .341 146
2019 04 26 14  13 04 55.284   -05 17 07.94  14.605 15.561 161.1 23.5 .348 146
2019 04 26 15  13 04 54.850   -05 17 05.76  14.605 15.561 161.1 23.5 .355 146
2019 04 26 16  13 04 54.417   -05 17 03.58  14.605 15.560 161.0 23.5 .361 145
2019 04 26 17  13 04 53.984   -05 17 01.41  14.605 15.560 161.0 23.5 .368 145
2019 04 26 18  13 04 53.551   -05 16 59.23  14.606 15.560 161.0 23.5 .375 145
2019 04 26 19  13 04 53.118   -05 16 57.06  14.606 15.560 160.9 23.5 .382 144
2019 04 26 20  13 04 52.685   -05 16 54.89  14.606 15.560 160.9 23.5 .389 144
2019 04 26 21  13 04 52.252   -05 16 52.72  14.606 15.560 160.8 23.5 .395 144
2019 04 26 22  13 04 51.820   -05 16 50.55  14.606 15.560 160.8 23.5 .403 143
2019 04 26 23  13 04 51.388   -05 16 48.38  14.606 15.560 160.7 23.5 .410 143
2019 04 27 00  13 04 50.955   -05 16 46.21  14.606 15.560 160.7 23.5 .417 143
2019 04 27 01  13 04 50.523   -05 16 44.04  14.606 15.560 160.7 23.5 .424 142
2019 04 27 02  13 04 50.091   -05 16 41.88  14.607 15.560 160.6 23.5 .431 142
2019 04 27 03  13 04 49.660   -05 16 39.71  14.607 15.559 160.6 23.5 .439 142
2019 04 27 04  13 04 49.228   -05 16 37.55  14.607 15.559 160.5 23.5 .446 142
2019 04 27 05  13 04 48.797   -05 16 35.38  14.607 15.559 160.5 23.5 .453 141
2019 04 27 06  13 04 48.365   -05 16 33.22  14.607 15.559 160.5 23.5 .461 141
2019 04 27 07  13 04 47.934   -05 16 31.06  14.607 15.559 160.4 23.5 .468 141
2019 04 27 08  13 04 47.503   -05 16 28.90  14.607 15.559 160.4 23.5 .476 141
2019 04 27 09  13 04 47.072   -05 16 26.75  14.607 15.559 160.3 23.5 .484 140
2019 04 27 10  13 04 46.642   -05 16 24.59  14.608 15.559 160.3 23.5 .491 140
2019 04 27 11  13 04 46.211   -05 16 22.43  14.608 15.559 160.2 23.5 .499 140
2019 04 27 12  13 04 45.781   -05 16 20.28  14.608 15.559 160.2 23.5 .507 140
2019 04 27 13  13 04 45.351   -05 16 18.12  14.608 15.559 160.2 23.5 .515 139
2019 04 27 14  13 04 44.920   -05 16 15.97  14.608 15.558 160.1 23.5 .523 139
2019 04 27 15  13 04 44.490   -05 16 13.82  14.608 15.558 160.1 23.5 .531 139
2019 04 27 16  13 04 44.061   -05 16 11.67  14.608 15.558 160.0 23.5 .539 139
2019 04 27 17  13 04 43.631   -05 16 09.52  14.609 15.558 160.0 23.5 .547 139
2019 04 27 18  13 04 43.202   -05 16 07.37  14.609 15.558 159.9 23.5 .555 138
2019 04 27 19  13 04 42.772   -05 16 05.22  14.609 15.558 159.9 23.5 .563 138
2019 04 27 20  13 04 42.343   -05 16 03.08  14.609 15.558 159.9 23.5 .571 138
2019 04 27 21  13 04 41.914   -05 16 00.93  14.609 15.558 159.8 23.5 .580 138
2019 04 27 22  13 04 41.485   -05 15 58.79  14.609 15.558 159.8 23.5 .588 138
2019 04 27 23  13 04 41.057   -05 15 56.64  14.609 15.558 159.7 23.5 .596 137
2019 04 28 00  13 04 40.628   -05 15 54.50  14.610 15.558 159.7 23.5 .605 137
2019 04 28 01  13 04 40.200   -05 15 52.36  14.610 15.557 159.7 23.5 .614 137